Location: Hobi?a Gr?di?te
(45.4833°N, 22.7833°E)
Time: 10:32:41
(UTC+00:00)

Cosmos 1844 Rocket - Pass Details

Date: 28 January 2023
Orbit: 825 x 843 km, 71.0° (Epoch: 31 March)

Event Time Altitude Azimuth Distance (km) Brightness Sun altitude
Rises 15:59:08 0° 344° (NNW) 3,378 5.8 -5.7°
Reaches altitude 10° 16:03:34 10° 16° (NNE) 2,438 4.8 -6.4°
Maximum altitude 16:05:24 12° 36° (NE) 2,326 4.5 -6.7°
Drops below altitude 10° 16:07:15 10° 56° (NE) 2,433 4.5 -7.0°
Enters shadow 16:08:12 - 65° (ENE) 2,568 4.5 -7.2°
